Regional Weather Roundup
Issued by NWS

Home | Current Version | Previous Version | Text Only | Print | Product List | Glossary Off
Versions: 1 2 3 4 5 6 7 8 9 10 11 12 13 14 15 16 17 18 19 20 21 22 23 24 25 26 27 28 29 30 31 32 33 34 35 36 37 38 39 40 41 42 43 44 45 46 47 48 49 50

000
ASUS43 KFSD 250810
RWRSD

WEATHER ROUNDUP FOR SOUTH DAKOTA
NATIONAL WEATHER SERVICE SIOUX FALLS SD
300 AM CDT FRI MAY 25 2018

NOTE: "FAIR" INDICATES FEW OR NO CLOUDS BELOW 12,000 FEET WITH NO
SIGNIFICANT WEATHER AND/OR OBSTRUCTIONS TO VISIBILITY.


SDZ001>005-009-010-012>017-250900-
NORTHWEST AND NORTH CENTRAL SOUTH DAKOTA

CITY           SKY/WX    TMP DP  RH WIND       PRES   REMARKS
BUFFALO          N/A     61  50  67 W10       29.83S
FAITH            N/A     62  57  83 SW12      29.87F
MOBRIDGE       CLEAR     64  58  80 SE7       29.79F
$$

SDZ012>016-024>037-041>051-057-063-072>074-250900-
SOUTHWEST AND SOUTH CENTRAL SOUTH DAKOTA

CITY           SKY/WX    TMP DP  RH WIND       PRES   REMARKS
RAPID CTY ARPT CLEAR     58  52  80 NW6       29.92F
PIERRE         CLEAR     62  58  86 W5        29.82F
CUSTER         CLEAR     51  42  71 NW3       30.05F
ELLSWORTH AFB  PTCLDY    60  56  87 W5        29.91F
PHILIP         CLEAR     58  57  97 NW5       29.87S
PINE RIDGE     CLEAR     54  53  97 NW3       29.94F
SPEARFISH      FAIR      57  48  72 S8        29.97F
WINNER         FAIR      66  56  70 SW8       29.87S
$$

SDZ004>011-016>023-039-040-250900-
NORTHEAST SOUTH DAKOTA

CITY           SKY/WX    TMP DP  RH WIND       PRES   REMARKS
ABERDEEN       PTCLDY    58  54  86 SW7       29.79F
WATERTOWN      CLOUDY    61  60  97 S3        29.81F
BROOKINGS      PTCLDY    62  58  86 CALM      29.83F
SISSETON         N/A     70  62  76 SW10      29.75F
$$

SDZ017-020-022-023-036>040-048>070-250900-
SOUTHEAST SOUTH DAKOTA

CITY           SKY/WX    TMP DP  RH WIND       PRES   REMARKS
SIOUX FALLS    CLOUDY    68  62  81 S7        29.83F
HURON          MOCLDY    65  60  84 S3        29.81F
CHAMBERLAIN    PTCLDY    64  61  90 CALM      29.85F
MITCHELL       MOCLDY    64  60  87 W3        29.83S
YANKTON        CLOUDY    70  59  68 S3        29.84S
$$

ABBREVIATIONS USED IN REMARKS
   TC - TEMPERATURE IN CELSIUS
  WCI - WIND CHILL INDEX
   HX - HEAT INDEX
  VSB - VISIBILITY





USA.gov is the U.S. government's official web portal to all federal, state and local government web resources and services.